Location: �mondeville
(49.4591°N, 1.3431°W)
Time: 09:28:33
(UTC+00:00)

Cosmos 2237 Rocket - Pass Details

Date: 22 October 2019
Orbit: 833 x 851 km, 71.0° (Epoch: 21 November)

Event Time Altitude Azimuth Distance (km) Brightness Sun altitude
Exits shadow 05:57:38 - 269° (W) 2,641 4.1 -7.1°
Reaches altitude 10° 05:58:14 10° 274° (W) 2,477 4.0 -7.0°
Maximum altitude 06:02:26 21° 321° (NW) 1,839 3.6 -6.3°
Drops below altitude 10° 06:06:40 10° 9° (N) 2,490 4.7 -5.6°
Sets 06:09:48 0° 26° (NNE) 3,430 5.6 -5.1°
